| time (UTC) | temp F | wind direction | speed MPH | gust MPH | rain 1hr in | rain 24hr in | rain mn in | humidity % | barometer mb |
| 20260507084636 | 51 | 115 | 2.0 | 7.0 | 0.00 | 0.00 | 0.00 | 84 | 1018.6 |
| 20260507084136 | 51 | 145 | 2.0 | 7.0 | 0.00 | 0.00 | 0.00 | 84 | 1018.6 |
| 20260507083636 | 51 | 135 | 2.0 | 7.0 | 0.00 | 0.00 | 0.00 | 84 | 1018.7 |
| 20260507083136 | 51 | 149 | 3.0 | 7.0 | 0.00 | 0.00 | 0.00 | 84 | 1018.7 |
| 20260507082636 | 51 | 124 | 2.0 | 7.0 | 0.00 | 0.00 | 0.00 | 84 | 1018.7 |
| 20260507082135 | 51 | 133 | 3.0 | 9.0 | 0.00 | 0.00 | 0.00 | 84 | 1018.7 |
| 20260507081136 | 52 | 151 | 4.0 | 9.0 | 0.00 | 0.00 | 0.00 | 84 | 1018.6 |
| 20260507080635 | 52 | 141 | 3.0 | 9.0 | 0.00 | 0.00 | 0.00 | 84 | 1018.6 |
| 20260507075636 | 52 | 116 | 3.0 | 9.0 | 0.00 | 0.00 | 0.00 | 84 | 1018.6 |
| 20260507075134 | 52 | 132 | 3.0 | 11.0 | 0.00 | 0.00 | 0.00 | 84 | 1018.7 |
| 20260507074634 | 52 | 122 | 2.0 | 11.0 | 0.00 | 0.00 | 0.00 | 84 | 1018.6 |
| 20260507074133 | 52 | 114 | 2.0 | 6.0 | 0.00 | 0.00 | 0.00 | 84 | 1018.6 |
| 20260507073634 | 52 | 118 | 1.0 | 4.0 | 0.00 | 0.00 | 0.00 | 83 | 1018.7 |
| 20260507072633 | 53 | 93 | 2.0 | 7.0 | 0.00 | 0.00 | 0.00 | 82 | 1018.6 |
| 20260507072134 | 53 | 144 | 1.0 | 5.0 | 0.00 | 0.00 | 0.00 | 82 | 1018.5 |
| 20260507071635 | 53 | 126 | 1.0 | 5.0 | 0.00 | 0.00 | 0.00 | 82 | 1018.5 |
| 20260507071131 | 53 | 173 | 2.0 | 8.0 | 0.00 | 0.00 | 0.00 | 82 | 1018.5 |
| 20260507070632 | 53 | 153 | 2.0 | 8.0 | 0.00 | 0.00 | 0.00 | 82 | 1018.5 |
| 20260507065116 | 53 | 88 | 1.0 | 5.0 | 0.00 | 0.00 | 0.00 | 81 | 1018.5 |
| 20260507064617 | 53 | 93 | 2.0 | 7.0 | 0.00 | 0.00 | 0.00 | 81 | 1018.5 |
| 20260507064117 | 53 | 134 | 2.0 | 7.0 | 0.00 | 0.00 | 0.00 | 81 | 1018.3 |
| 20260507063617 | 53 | 114 | 2.0 | 5.0 | 0.00 | 0.00 | 0.00 | 81 | 1018.3 |
| 20260507063115 | 53 | 105 | 3.0 | 9.0 | 0.00 | 0.00 | 0.00 | 81 | 1018.3 |
| 20260507062615 | 53 | 106 | 3.0 | 9.0 | 0.00 | 0.00 | 0.00 | 81 | 1018.2 |
| 20260507062117 | 53 | 80 | 2.0 | 9.0 | 0.00 | 0.00 | 0.00 | 81 | 1018.1 |
| 20260507061615 | 53 | 122 | 2.0 | 7.0 | 0.00 | 0.00 | 0.00 | 81 | 1018.1 |
| 20260507061115 | 53 | 122 | 2.0 | 7.0 | 0.00 | 0.00 | 0.00 | 81 | 1017.9 |
| 20260507060616 | 53 | 116 | 3.0 | 9.0 | 0.00 | 0.00 | 0.00 | 80 | 1018.0 |
| 20260507060113 | 53 | 176 | 4.0 | 12.0 | 0.00 | 0.00 | 0.00 | 80 | 1017.9 |
| 20260507055612 | 54 | 144 | 4.0 | 13.0 | 0.00 | 0.00 | 0.00 | 80 | 1017.9 |
| 20260507055112 | 53 | 97 | 4.0 | 13.0 | 0.00 | 0.00 | 0.00 | 80 | 1017.8 |
| 20260507054612 | 53 | 118 | 5.0 | 13.0 | 0.00 | 0.00 | 0.00 | 81 | 1017.9 |
| 20260507054113 | 53 | 132 | 5.0 | 16.0 | 0.00 | 0.00 | 0.00 | 82 | 1017.9 |
| 20260507053612 | 53 | 127 | 5.0 | 16.0 | 0.00 | 0.00 | 0.00 | 83 | 1018.0 |
| 20260507052612 | 53 | 103 | 5.0 | 16.0 | 0.00 | 0.00 | 0.00 | 83 | 1018.2 |
| 20260507051612 | 53 | 176 | 5.0 | 14.0 | 0.00 | 0.00 | 0.00 | 83 | 1018.2 |
| 20260507051112 | 53 | 126 | 5.0 | 14.0 | 0.00 | 0.00 | 0.00 | 83 | 1018.1 |
| 20260507050610 | 53 | 180 | 4.0 | 11.0 | 0.00 | 0.00 | 0.00 | 82 | 1018.2 |
| 20260507045611 | 54 | 154 | 4.0 | 11.0 | 0.00 | 0.00 | 0.00 | 82 | 1018.2 |
| 20260507044604 | 54 | 145 | 4.0 | 12.0 | 0.00 | 0.00 | 0.00 | 82 | 1018.2 |
| 20260507044104 | 54 | 79 | 4.0 | 13.0 | 0.00 | 0.00 | 0.00 | 83 | 1018.2 |
| 20260507043604 | 54 | 107 | 4.0 | 13.0 | 0.00 | 0.00 | 0.00 | 83 | 1018.3 |
| 20260507043104 | 54 | 122 | 5.0 | 12.0 | 0.00 | 0.00 | 0.00 | 83 | 1018.2 |
| 20260507042604 | 54 | 120 | 4.0 | 12.0 | 0.00 | 0.00 | 0.00 | 83 | 1018.3 |
| 20260507042105 | 54 | 115 | 3.0 | 11.0 | 0.00 | 0.00 | 0.00 | 83 | 1018.2 |
| 20260507041604 | 54 | 117 | 3.0 | 11.0 | 0.00 | 0.00 | 0.00 | 83 | 1018.1 |
| 20260507041104 | 54 | 117 | 4.0 | 10.0 | 0.00 | 0.00 | 0.00 | 83 | 1018.1 |
| 20260507040059 | 54 | 118 | 4.0 | 12.0 | 0.00 | 0.00 | 0.00 | 83 | 1018.0 |
| 20260507035556 | 54 | 108 | 3.0 | 10.0 | 0.00 | 0.00 | 0.00 | 84 | 1017.9 |
| 20260507035055 | 54 | 47 | 3.0 | 10.0 | 0.00 | 0.00 | 0.00 | 84 | 1017.8 |
| 20260507034554 | 54 | 68 | 4.0 | 11.0 | 0.00 | 0.00 | 0.00 | 84 | 1018.0 |
| 20260507034055 | 54 | 113 | 3.0 | 11.0 | 0.00 | 0.00 | 0.00 | 84 | 1018.0 |
| 20260507033554 | 54 | 142 | 3.0 | 8.0 | 0.00 | 0.00 | 0.00 | 83 | 1018.0 |
| 20260507033054 | 54 | 222 | 3.0 | 8.0 | 0.00 | 0.00 | 0.00 | 83 | 1017.9 |
| 20260507032554 | 54 | 116 | 3.0 | 8.0 | 0.00 | 0.00 | 0.00 | 83 | 1018.0 |
| 20260507032054 | 54 | 116 | 2.0 | 9.0 | 0.00 | 0.00 | 0.00 | 83 | 1018.0 |
| 20260507031555 | 54 | 97 | 2.0 | 9.0 | 0.00 | 0.00 | 0.00 | 82 | 1018.0 |
| 20260507031054 | 54 | 111 | 2.0 | 8.0 | 0.00 | 0.00 | 0.00 | 82 | 1017.9 |
| 20260507030555 | 54 | 113 | 2.0 | 8.0 | 0.00 | 0.00 | 0.00 | 82 | 1018.1 |
| 20260507030046 | 55 | 112 | 1.0 | 5.0 | 0.00 | 0.00 | 0.00 | 82 | 1017.9 |
| 20260507025544 | 55 | 128 | 1.0 | 5.0 | 0.00 | 0.00 | 0.00 | 82 | 1018.0 |
| 20260507025038 | 55 | 60 | 2.0 | 7.0 | 0.00 | 0.00 | 0.00 | 82 | 1018.0 |
| 20260507024536 | 55 | 126 | 1.0 | 7.0 | 0.00 | 0.00 | 0.00 | 82 | 1018.0 |
| 20260507024035 | 55 | 108 | 1.0 | 4.0 | 0.00 | 0.00 | 0.00 | 81 | 1018.0 |
| 20260507023536 | 55 | 119 | 1.0 | 4.0 | 0.00 | 0.00 | 0.00 | 81 | 1017.9 |
| 20260507023037 | 55 | 139 | 0.0 | 3.0 | 0.00 | 0.00 | 0.00 | 81 | 1017.9 |
| 20260507022536 | 55 | 138 | 1.0 | 3.0 | 0.00 | 0.00 | 0.00 | 81 | 1018.0 |
| 20260507022036 | 55 | 58 | 1.0 | 4.0 | 0.00 | 0.00 | 0.00 | 81 | 1018.0 |
| 20260507021535 | 55 | 58 | 1.0 | 4.0 | 0.00 | 0.00 | 0.00 | 81 | 1018.0 |
| 20260507021033 | 55 | 81 | 1.0 | 3.0 | 0.00 | 0.00 | 0.00 | 81 | 1017.9 |
| 20260507020533 | 55 | 79 | 1.0 | 3.0 | 0.00 | 0.00 | 0.00 | 81 | 1018.0 |
| 20260507015530 | 55 | 126 | 1.0 | 4.0 | 0.00 | 0.00 | 0.00 | 81 | 1018.0 |
| 20260507015030 | 55 | 97 | 1.0 | 4.0 | 0.00 | 0.00 | 0.00 | 81 | 1018.0 |
| 20260507014530 | 55 | 121 | 2.0 | 5.0 | 0.00 | 0.00 | 0.00 | 81 | 1017.9 |
| 20260507013528 | 55 | 135 | 2.0 | 6.0 | 0.00 | 0.00 | 0.00 | 81 | 1017.9 |
| 20260507013023 | 55 | 153 | 2.0 | 6.0 | 0.00 | 0.00 | 0.00 | 81 | 1017.9 |
| 20260507012519 | 55 | 103 | 2.0 | 6.0 | 0.00 | 0.00 | 0.00 | 81 | 1017.9 |
| 20260507012016 | 55 | 118 | 2.0 | 6.0 | 0.00 | 0.00 | 0.00 | 81 | 1017.9 |
| 20260507011516 | 55 | 127 | 2.0 | 6.0 | 0.00 | 0.00 | 0.00 | 81 | 1017.9 |
| 20260507011014 | 55 | 135 | 2.0 | 5.0 | 0.00 | 0.00 | 0.00 | 80 | 1018.0 |
| 20260507010514 | 56 | 106 | 3.0 | 10.0 | 0.00 | 0.00 | 0.00 | 80 | 1018.0 |
| 20260507010014 | 56 | 135 | 2.0 | 10.0 | 0.00 | 0.00 | 0.00 | 79 | 1018.0 |
| 20260507005013 | 56 | 135 | 2.0 | 6.0 | 0.00 | 0.00 | 0.00 | 79 | 1018.0 |
| 20260507004514 | 56 | 110 | 2.0 | 7.0 | 0.00 | 0.00 | 0.00 | 79 | 1018.0 |
| 20260507004012 | 56 | 100 | 3.0 | 7.0 | 0.00 | 0.00 | 0.00 | 79 | 1018.0 |
| 20260507003012 | 56 | 103 | 2.0 | 8.0 | 0.00 | 0.00 | 0.00 | 79 | 1018.0 |
| 20260507002514 | 56 | 127 | 2.0 | 9.0 | 0.00 | 0.00 | 0.00 | 80 | 1018.0 |
| 20260507002004 | 56 | 145 | 3.0 | 9.0 | 0.00 | 0.00 | 0.00 | 79 | 1018.0 |
| 20260507001457 | 56 | 161 | 3.0 | 7.0 | 0.00 | 0.00 | 0.00 | 79 | 1018.0 |
| 20260507000952 | 56 | 129 | 2.0 | 8.0 | 0.00 | 0.00 | 0.00 | 79 | 1018.0 |
| 20260507000451 | 56 | 125 | 3.0 | 8.0 | 0.00 | 0.00 | 0.00 | 79 | 1018.0 |
| 20260506235947 | 56 | 139 | 4.0 | 8.0 | 0.00 | 0.00 | 0.00 | 79 | 1018.0 |
| 20260506235449 | 56 | 122 | 4.0 | 11.0 | 0.00 | 0.00 | 0.00 | 78 | 1018.0 |
| 20260506234948 | 56 | 111 | 3.0 | 11.0 | 0.00 | 0.00 | 0.00 | 78 | 1018.0 |
| 20260506234445 | 57 | 140 | 3.0 | 9.0 | 0.00 | 0.00 | 0.00 | 77 | 1017.9 |
| 20260506233945 | 57 | 113 | 3.0 | 9.0 | 0.00 | 0.00 | 0.00 | 76 | 1018.0 |
| 20260506233445 | 58 | 160 | 2.0 | 6.0 | 0.00 | 0.00 | 0.00 | 77 | 1018.0 |
| 20260506232944 | 58 | 133 | 2.0 | 6.0 | 0.00 | 0.00 | 0.00 | 76 | 1018.1 |
| 20260506232442 | 58 | 145 | 2.0 | 6.0 | 0.00 | 0.00 | 0.00 | 76 | 1018.0 |
| 20260506231947 | 58 | 137 | 2.0 | 9.0 | 0.00 | 0.00 | 0.00 | 77 | 1018.1 |
| 20260506231441 | 57 | 128 | 3.0 | 9.0 | 0.00 | 0.00 | 0.00 | 77 | 1018.0 |
| 20260506230942 | 57 | 143 | 3.0 | 9.0 | 0.00 | 0.00 | 0.00 | 77 | 1018.1 |
| 20260506230442 | 57 | 134 | 3.0 | 9.0 | 0.00 | 0.00 | 0.00 | 76 | 1018.0 |
| 20260506225942 | 58 | 122 | 2.0 | 8.0 | 0.00 | 0.00 | 0.00 | 77 | 1018.0 |
| 20260506225441 | 57 | 143 | 3.0 | 8.0 | 0.00 | 0.00 | 0.00 | 77 | 1018.2 |
| 20260506224440 | 57 | 160 | 2.0 | 8.0 | 0.00 | 0.00 | 0.00 | 78 | 1018.2 |
| 20260506223439 | 57 | 148 | 3.0 | 10.0 | 0.00 | 0.00 | 0.00 | 76 | 1018.3 |
| 20260506222940 | 57 | 137 | 3.0 | 10.0 | 0.00 | 0.00 | 0.00 | 76 | 1018.3 |
| 20260506222439 | 58 | 134 | 3.0 | 9.0 | 0.00 | 0.00 | 0.00 | 76 | 1018.3 |
| 20260506221940 | 58 | 176 | 3.0 | 9.0 | 0.00 | 0.00 | 0.00 | 76 | 1018.3 |
| 20260506221439 | 58 | 170 | 3.0 | 8.0 | 0.00 | 0.00 | 0.00 | 76 | 1018.2 |
| 20260506220940 | 58 | 162 | 2.0 | 8.0 | 0.00 | 0.00 | 0.00 | 76 | 1018.2 |
| 20260506220440 | 58 | 153 | 2.0 | 8.0 | 0.00 | 0.00 | 0.00 | 78 | 1018.2 |
| 20260506215939 | 57 | 109 | 3.0 | 8.0 | 0.00 | 0.00 | 0.00 | 75 | 1018.3 |
| 20260506215439 | 57 | 132 | 3.0 | 8.0 | 0.00 | 0.00 | 0.00 | 78 | 1018.2 |
| 20260506214940 | 58 | 106 | 3.0 | 9.0 | 0.00 | 0.00 | 0.00 | 76 | 1018.2 |
| 20260506214440 | 58 | 137 | 3.0 | 9.0 | 0.00 | 0.00 | 0.00 | 75 | 1018.2 |
| 20260506213940 | 58 | 174 | 3.0 | 9.0 | 0.00 | 0.00 | 0.00 | 75 | 1018.3 |
| 20260506213440 | 59 | 149 | 3.0 | 9.0 | 0.00 | 0.00 | 0.00 | 75 | 1018.3 |
| 20260506212440 | 59 | 110 | 3.0 | 8.0 | 0.00 | 0.00 | 0.00 | 76 | 1018.3 |
| 20260506211439 | 59 | 112 | 2.0 | 8.0 | 0.00 | 0.00 | 0.00 | 76 | 1018.3 |
| 20260506210939 | 58 | 120 | 3.0 | 9.0 | 0.00 | 0.00 | 0.00 | 79 | 1018.2 |
| 20260506210437 | 58 | 110 | 4.0 | 10.0 | 0.00 | 0.00 | 0.00 | 76 | 1018.3 |
| 20260506205937 | 58 | 138 | 3.0 | 10.0 | 0.00 | 0.00 | 0.00 | 78 | 1018.2 |
| 20260506205437 | 58 | 126 | 3.0 | 8.0 | 0.00 | 0.00 | 0.00 | 78 | 1018.3 |
| 20260506204935 | 58 | 108 | 3.0 | 9.0 | 0.00 | 0.00 | 0.00 | 77 | 1018.4 |
| 20260506203935 | 56 | 91 | 3.0 | 8.0 | 0.00 | 0.00 | 0.00 | 80 | 1018.2 |
| 20260506203435 | 56 | 128 | 3.0 | 8.0 | 0.00 | 0.00 | 0.00 | 81 | 1018.3 |
| 20260506202435 | 55 | 118 | 3.0 | 7.0 | 0.00 | 0.00 | 0.00 | 82 | 1018.4 |
| 20260506201936 | 55 | 86 | 2.0 | 7.0 | 0.00 | 0.00 | 0.00 | 83 | 1018.4 |
| 20260506201435 | 54 | 125 | 2.0 | 7.0 | 0.00 | 0.00 | 0.00 | 83 | 1018.3 |
| 20260506200936 | 54 | 125 | 3.0 | 8.0 | 0.00 | 0.00 | 0.00 | 83 | 1018.4 |
| 20260506200435 | 54 | 120 | 2.0 | 8.0 | 0.00 | 0.00 | 0.00 | 83 | 1018.3 |
| 20260506195933 | 54 | 141 | 2.0 | 8.0 | 0.00 | 0.00 | 0.00 | 83 | 1018.3 |
| 20260506195434 | 54 | 128 | 2.0 | 8.0 | 0.00 | 0.00 | 0.00 | 84 | 1018.3 |
| 20260506194933 | 53 | 148 | 3.0 | 8.0 | 0.00 | 0.00 | 0.00 | 84 | 1018.2 |
| 20260506194433 | 53 | 117 | 3.0 | 8.0 | 0.00 | 0.00 | 0.00 | 84 | 1018.2 |
| 20260506193933 | 53 | 101 | 3.0 | 9.0 | 0.00 | 0.00 | 0.00 | 84 | 1018.1 |
| 20260506193433 | 53 | 115 | 3.0 | 9.0 | 0.00 | 0.00 | 0.00 | 84 | 1018.2 |
| 20260506192933 | 53 | 136 | 2.0 | 6.0 | 0.00 | 0.00 | 0.00 | 86 | 1018.1 |
| 20260506192433 | 53 | 126 | 2.0 | 7.0 | 0.00 | 0.00 | 0.00 | 86 | 1018.1 |
| 20260506191933 | 53 | 92 | 2.0 | 7.0 | 0.00 | 0.00 | 0.00 | 86 | 1018.0 |
| 20260506190931 | 53 | 109 | 2.0 | 6.0 | 0.00 | 0.00 | 0.00 | 87 | 1018.0 |
| 20260506190428 | 53 | 137 | 3.0 | 6.0 | 0.00 | 0.00 | 0.00 | 87 | 1018.0 |
| 20260506185931 | 53 | 136 | 2.0 | 7.0 | 0.00 | 0.00 | 0.00 | 87 | 1018.0 |
| 20260506185429 | 53 | 116 | 2.0 | 7.0 | 0.00 | 0.00 | 0.00 | 87 | 1018.0 |
| 20260506184427 | 53 | 136 | 2.0 | 7.0 | 0.00 | 0.00 | 0.00 | 87 | 1018.0 |
| 20260506183425 | 52 | 116 | 3.0 | 9.0 | 0.00 | 0.00 | 0.00 | 87 | 1017.9 |
| 20260506182926 | 52 | 137 | 2.0 | 9.0 | 0.00 | 0.00 | 0.00 | 88 | 1017.9 |
| 20260506182425 | 52 | 128 | 2.0 | 8.0 | 0.00 | 0.00 | 0.00 | 87 | 1017.9 |
| 20260506181925 | 52 | 158 | 2.0 | 7.0 | 0.00 | 0.00 | 0.00 | 87 | 1017.9 |
| 20260506181425 | 52 | 182 | 3.0 | 7.0 | 0.00 | 0.00 | 0.00 | 87 | 1017.9 |
| 20260506180422 | 52 | 105 | 2.0 | 8.0 | 0.00 | 0.00 | 0.00 | 87 | 1017.9 |
| 20260506175923 | 52 | 130 | 3.0 | 8.0 | 0.00 | 0.00 | 0.00 | 86 | 1017.9 |
| 20260506175421 | 52 | 126 | 3.0 | 7.0 | 0.00 | 0.00 | 0.00 | 86 | 1017.9 |
| 20260506174921 | 53 | 148 | 3.0 | 7.0 | 0.00 | 0.00 | 0.00 | 86 | 1017.9 |
| 20260506174420 | 53 | 112 | 3.0 | 7.0 | 0.00 | 0.00 | 0.00 | 86 | 1017.8 |
| 20260506173921 | 53 | 123 | 3.0 | 8.0 | 0.00 | 0.00 | 0.00 | 86 | 1017.6 |
| 20260506172919 | 53 | 135 | 2.0 | 7.0 | 0.00 | 0.00 | 0.00 | 87 | 1017.6 |
| 20260506172419 | 53 | 140 | 2.0 | 7.0 | 0.00 | 0.00 | 0.00 | 87 | 1017.5 |
| 20260506171919 | 53 | 150 | 2.0 | 7.0 | 0.00 | 0.00 | 0.00 | 88 | 1017.5 |
| 20260506170919 | 52 | 137 | 1.0 | 5.0 | 0.00 | 0.00 | 0.00 | 89 | 1017.4 |
| 20260506170419 | 52 | 134 | 1.0 | 4.0 | 0.00 | 0.00 | 0.00 | 89 | 1017.3 |
| 20260506164914 | 52 | 177 | 1.0 | 7.0 | 0.00 | 0.00 | 0.00 | 89 | 1017.5 |
| 20260506163911 | 52 | 135 | 2.0 | 6.0 | 0.00 | 0.00 | 0.00 | 88 | 1017.4 |
| 20260506163411 | 52 | 122 | 1.0 | 4.0 | 0.00 | 0.00 | 0.00 | 88 | 1017.3 |
| 20260506162911 | 52 | 114 | 1.0 | 4.0 | 0.00 | 0.00 | 0.00 | 89 | 1017.4 |
| 20260506162411 | 52 | 147 | 1.0 | 3.0 | 0.00 | 0.00 | 0.00 | 88 | 1017.4 |
| 20260506161924 | 52 | 161 | 1.0 | 4.0 | 0.00 | 0.00 | 0.00 | 88 | 1017.4 |
| 20260506161410 | 52 | 193 | 1.0 | 4.0 | 0.00 | 0.00 | 0.00 | 88 | 1017.5 |
| 20260506160911 | 52 | 195 | 1.0 | 4.0 | 0.00 | 0.00 | 0.00 | 88 | 1017.5 |
| 20260506160411 | 52 | 138 | 2.0 | 5.0 | 0.00 | 0.00 | 0.00 | 88 | 1017.5 |
| 20260506155911 | 52 | 144 | 2.0 | 7.0 | 0.00 | 0.00 | 0.00 | 88 | 1017.5 |
| 20260506155410 | 52 | 121 | 2.0 | 7.0 | 0.00 | 0.00 | 0.00 | 87 | 1017.6 |
| 20260506154914 | 52 | 155 | 2.0 | 7.0 | 0.00 | 0.00 | 0.00 | 88 | 1017.7 |
| 20260506154409 | 52 | 132 | 1.0 | 5.0 | 0.00 | 0.00 | 0.00 | 88 | 1017.5 |
| 20260506153908 | 52 | 145 | 2.0 | 7.0 | 0.00 | 0.00 | 0.00 | 88 | 1017.5 |
| 20260506153408 | 52 | 172 | 2.0 | 7.0 | 0.00 | 0.00 | 0.00 | 87 | 1017.5 |
| 20260506152909 | 52 | 133 | 2.0 | 7.0 | 0.00 | 0.00 | 0.00 | 87 | 1017.5 |
| 20260506152408 | 52 | 130 | 2.0 | 7.0 | 0.00 | 0.00 | 0.00 | 86 | 1017.4 |
| 20260506151910 | 52 | 147 | 2.0 | 7.0 | 0.00 | 0.00 | 0.00 | 87 | 1017.3 |
| 20260506151409 | 52 | 126 | 1.0 | 4.0 | 0.00 | 0.00 | 0.00 | 86 | 1017.3 |
| 20260506150907 | 52 | 132 | 0.0 | 2.0 | 0.00 | 0.00 | 0.00 | 86 | 1017.1 |
| 20260506150404 | 52 | 132 | 0.0 | 4.0 | 0.00 | 0.00 | 0.00 | 87 | 1017.0 |
| 20260506145905 | 52 | 132 | 0.0 | 4.0 | 0.00 | 0.00 | 0.00 | 86 | 1017.0 |
| 20260506145402 | 52 | 72 | 0.0 | 2.0 | 0.00 | 0.00 | 0.00 | 87 | 1017.0 |
| 20260506144903 | 52 | 70 | 0.0 | 1.0 | 0.00 | 0.00 | 0.00 | 87 | 1017.0 |
| 20260506144402 | 52 | 70 | 0.0 | 2.0 | 0.00 | 0.00 | 0.00 | 87 | 1016.8 |
| 20260506143903 | 52 | 70 | 1.0 | 4.0 | 0.00 | 0.00 | 0.00 | 86 | 1016.8 |
| 20260506142356 | 52 | 7 | 1.0 | 3.0 | 0.00 | 0.00 | 0.00 | 87 | 1016.6 |
| 20260506141855 | 52 | 120 | 1.0 | 5.0 | 0.00 | 0.00 | 0.00 | 87 | 1016.8 |
| 20260506141355 | 52 | 127 | 1.0 | 5.0 | 0.00 | 0.00 | 0.00 | 87 | 1016.9 |
| 20260506140352 | 51 | 100 | 2.0 | 6.0 | 0.00 | 0.00 | 0.00 | 87 | 1016.7 |
| 20260506135852 | 51 | 123 | 1.0 | 4.0 | 0.00 | 0.00 | 0.00 | 87 | 1016.8 |
| 20260506135352 | 51 | 143 | 1.0 | 4.0 | 0.00 | 0.00 | 0.00 | 88 | 1016.8 |
| 20260506134853 | 51 | 272 | 1.0 | 3.0 | 0.00 | 0.00 | 0.00 | 88 | 1016.7 |
| 20260506134353 | 51 | 51 | 1.0 | 5.0 | 0.00 | 0.00 | 0.00 | 88 | 1016.6 |
| 20260506133353 | 51 | 98 | 0.0 | 4.0 | 0.00 | 0.00 | 0.00 | 88 | 1016.4 |
| 20260506132853 | 51 | 98 | 1.0 | 4.0 | 0.00 | 0.00 | 0.00 | 87 | 1016.3 |
| 20260506132353 | 51 | 124 | 1.0 | 4.0 | 0.00 | 0.00 | 0.00 | 88 | 1016.3 |
| 20260506131853 | 51 | 123 | 1.0 | 5.0 | 0.00 | 0.00 | 0.00 | 88 | 1016.3 |
| 20260506131353 | 51 | 123 | 1.0 | 5.0 | 0.00 | 0.00 | 0.00 | 88 | 1016.3 |
| 20260506130353 | 51 | 118 | 2.0 | 7.0 | 0.00 | 0.00 | 0.00 | 87 | 1016.4 |
| 20260506125852 | 51 | 110 | 1.0 | 6.0 | 0.00 | 0.00 | 0.00 | 88 | 1016.4 |
| 20260506125353 | 51 | 103 | 1.0 | 5.0 | 0.00 | 0.00 | 0.00 | 88 | 1016.4 |
| 20260506124852 | 51 | 101 | 2.0 | 6.0 | 0.00 | 0.00 | 0.00 | 88 | 1016.2 |
| 20260506124353 | 51 | 106 | 1.0 | 6.0 | 0.00 | 0.00 | 0.00 | 88 | 1016.2 |
| 20260506123853 | 51 | 108 | 1.0 | 3.0 | 0.00 | 0.00 | 0.00 | 88 | 1016.3 |
| 20260506123352 | 51 | 106 | 1.0 | 6.0 | 0.00 | 0.00 | 0.00 | 88 | 1016.4 |
| 20260506122347 | 51 | 93 | 2.0 | 7.0 | 0.00 | 0.00 | 0.00 | 88 | 1016.3 |
| 20260506121846 | 51 | 115 | 2.0 | 7.0 | 0.00 | 0.00 | 0.00 | 88 | 1016.4 |
| 20260506120844 | 51 | 82 | 1.0 | 5.0 | 0.00 | 0.00 | 0.00 | 88 | 1016.2 |
| 20260506120342 | 51 | 182 | 1.0 | 5.0 | 0.00 | 0.00 | 0.00 | 88 | 1016.0 |
| 20260506115342 | 51 | 114 | 1.0 | 5.0 | 0.00 | 0.00 | 0.00 | 88 | 1015.9 |
| 20260506114843 | 51 | 62 | 1.0 | 4.0 | 0.00 | 0.00 | 0.00 | 88 | 1015.9 |
| 20260506114341 | 51 | 138 | 1.0 | 4.0 | 0.00 | 0.00 | 0.00 | 88 | 1015.9 |
| 20260506113839 | 51 | 175 | 1.0 | 4.0 | 0.00 | 0.00 | 0.00 | 88 | 1015.9 |
| 20260506113336 | 51 | 89 | 2.0 | 5.0 | 0.00 | 0.00 | 0.00 | 88 | 1015.9 |
| 20260506112331 | 51 | 106 | 1.0 | 8.0 | 0.00 | 0.00 | 0.00 | 89 | 1015.9 |
| 20260506111829 | 51 | 133 | 1.0 | 5.0 | 0.00 | 0.00 | 0.00 | 89 | 1015.9 |
| 20260506111324 | 51 | 168 | 1.0 | 4.0 | 0.00 | 0.00 | 0.00 | 89 | 1015.8 |
| 20260506110817 | 51 | 61 | 1.0 | 4.0 | 0.00 | 0.00 | 0.00 | 89 | 1015.6 |
| 20260506110318 | 51 | 28 | 1.0 | 6.0 | 0.00 | 0.00 | 0.00 | 89 | 1015.5 |
| 20260506105818 | 51 | 63 | 1.0 | 6.0 | 0.00 | 0.00 | 0.00 | 89 | 1015.6 |
| 20260506105318 | 51 | 108 | 1.0 | 3.0 | 0.00 | 0.00 | 0.00 | 90 | 1015.5 |
| 20260506104819 | 51 | 105 | 0.0 | 3.0 | 0.00 | 0.00 | 0.00 | 90 | 1015.5 |
| 20260506104318 | 51 | 108 | 1.0 | 3.0 | 0.00 | 0.00 | 0.00 | 90 | 1015.4 |
| 20260506103818 | 51 | 106 | 1.0 | 4.0 | 0.00 | 0.00 | 0.00 | 90 | 1015.4 |
| 20260506103319 | 51 | 165 | 1.0 | 4.0 | 0.00 | 0.00 | 0.00 | 90 | 1015.3 |
| 20260506102318 | 51 | 182 | 1.0 | 7.0 | 0.00 | 0.00 | 0.00 | 90 | 1015.1 |
| 20260506101817 | 51 | 179 | 2.0 | 9.0 | 0.00 | 0.00 | 0.00 | 90 | 1015.1 |
| 20260506101315 | 51 | 93 | 2.0 | 9.0 | 0.00 | 0.00 | 0.00 | 90 | 1015.1 |
| 20260506095808 | 51 | 130 | 3.0 | 7.0 | 0.00 | 0.00 | 0.00 | 90 | 1014.9 |
| 20260506095308 | 51 | 120 | 4.0 | 9.0 | 0.00 | 0.00 | 0.00 | 90 | 1014.9 |
| 20260506094813 | 51 | 133 | 4.0 | 11.0 | 0.00 | 0.00 | 0.00 | 90 | 1014.9 |
| 20260506092808 | 51 | 111 | 5.0 | 13.0 | 0.00 | 0.00 | 0.00 | 90 | 1014.7 |
| 20260506092308 | 51 | 95 | 4.0 | 11.0 | 0.00 | 0.00 | 0.00 | 90 | 1014.7 |
| 20260506091808 | 51 | 113 | 4.0 | 11.0 | 0.00 | 0.00 | 0.00 | 90 | 1014.7 |
| 20260506091308 | 51 | 112 | 4.0 | 10.0 | 0.00 | 0.00 | 0.00 | 90 | 1014.7 |